Home   Weather   Karachi   Past weeks

Flag for Pakistan Past Weather in Karachi, Sindh, Pakistan — Yesterday and Last 2 Weeks

75 °F


Feels Like: 75 °F
Forecast: 74 / 90 °F
Wind: 3 mph from South

Location: Karachi Airport

Current Time: Oct 26, 2016 at 3:47:57 AM

Latest Report: Oct 26, 2016 at 2:55 AM

Visibility: 3 mi

Pressure: 29.83 "Hg

Humidity: 89%

Dew Point: 72 °F

Location of KarachiLocation

Past Weather in Karachi — Graph


Karachi Temperature Yesterday

Maximum temperature yesterday: 91 °F (at 12:55 PM)
Minimum temperature yesterday: 77 °F (at 2:55 AM)
Average temperature yesterday: 82 °F

High & Low Weather Summary for the Past Weeks

High93 °F (Oct 16, 12:59 PM)94% (Oct 13, 6:55 AM)29.95 "Hg (Oct 13, 6:55 AM)
Low75 °F (Oct 11, 4:55 AM)13% (Oct 17, 2:55 PM)29.71 "Hg (Oct 11, 3:55 PM)
Average82 °F67%29.83 "Hg
* Reported Oct 11 2:25 AM — Oct 26 2:25 AM, Karachi, Weather by CustomWeather, © 2016

Note: Actual official high and low records may vary slightly from our data, if they occured in-between our weather recording intervals... More about our weather records


Karachi Weather History for the Previous 24 Hours

Scroll right to see more
Time TempWeatherWind HumidityBarometerVisibility
2:25 AM
Wed, Oct 26
75 °FClear.5 mph89%29.83 "Hg3 mi
1:55 AM75 °FClear.3 mph89%29.83 "Hg3 mi
1:25 AM77 °FClear.5 mph83%29.83 "Hg3 mi
12:55 AM77 °FClear.6 mph89%29.86 "Hg3 mi
12:25 AM77 °FClear.6 mph83%29.86 "Hg3 mi
11:55 PM
Tue, Oct 25
77 °FClear.No wind89%29.86 "Hg3 mi
11:25 PM79 °FClear.No wind84%29.86 "Hg3 mi
10:55 PM79 °FClear.No wind79%29.86 "Hg4 mi
10:25 PM79 °FClear.No wind79%29.86 "Hg4 mi
9:55 PM79 °FClear.5 mph79%29.86 "Hg4 mi
8:55 PM81 °FClear.5 mph70%29.86 "Hg4 mi
8:25 PM81 °FClear.7 mph66%29.83 "Hg4 mi
6:55 PM82 °FPassing clouds.7 mph62%29.80 "Hg4 mi
6:25 PM84 °FPassing clouds.9 mph58%29.80 "Hg4 mi
4:55 PM90 °FClear.7 mph49%29.77 "Hg4 mi
2:55 PM90 °FClear.6 mph52%29.77 "Hg4 mi
2:25 PM90 °FClear.6 mph52%29.77 "Hg4 mi
1:55 PM90 °FClear.6 mph52%29.80 "Hg4 mi
1:25 PM90 °FClear.6 mph52%29.83 "Hg4 mi
12:55 PM91 °FHaze.6 mph49%29.83 "Hg3 mi
12:25 PM90 °FHaze.5 mph49%29.83 "Hg3 mi
11:55 AM88 °FHaze.6 mph55%29.86 "Hg3 mi
11:25 AM86 °FHaze.5 mph59%29.86 "Hg3 mi
10:55 AM86 °FHaze.5 mph62%29.89 "Hg3 mi
10:25 AM86 °FScattered clouds.5 mph62%29.89 "Hg3 mi
9:55 AM82 °FPartly sunny.8 mph70%29.89 "Hg3 mi
9:25 AM82 °FPartly sunny.9 mph70%29.89 "Hg3 mi
8:55 AM82 °FPartly sunny.12 mph70%29.86 "Hg3 mi
8:25 AM81 °FPartly sunny.5 mph74%29.86 "Hg3 mi
7:55 AM79 °FPartly sunny.5 mph79%29.86 "Hg2 mi
7:25 AM79 °FPartly sunny.7 mph79%29.83 "Hg2 mi
6:55 AM77 °FPartly sunny.6 mph83%29.83 "Hg2 mi
6:25 AM77 °FPassing clouds.No wind83%29.83 "Hg4 mi
4:55 AM77 °FPassing clouds.8 mph83%29.80 "Hg4 mi
4:25 AM77 °FPassing clouds.7 mph83%29.80 "Hg4 mi
3:55 AM77 °FPassing clouds.9 mph83%29.80 "Hg4 mi
3:25 AM77 °FPassing clouds.6 mph83%29.80 "Hg4 mi
Weather by CustomWeather, © 2016

See weather overviewHow to use our weather pages